Flag for Uruguay Weather past 2 weeks in Canelones, Uruguay

Now
48 °F

Mostly cloudy.


Feels Like: 43 °F
Forecast: 35 / 54 °F
Wind: 12 mph from Southwest

Location: Carrasco

Current Time: Jul 4, 2015 at 2:47:21 AM

Latest Report: Jul 4, 2015 at 2:00 AM


Visibility: N/A

Pressure: 30.12 "Hg

Humidity: 76%

Dew point: 41 °F

Location of CanelonesLocation

Historic Weather in Canelones — Graph

°F

Canelones temperature yesterday

Maximum temperature yesterday: 55 °F (at 11:00 AM)
Minimum temperature yesterday: 45 °F (at 7:00 AM)
Average temperature yesterday: 49 °F

Past Weeks' High & Low Weather Summary

 TemperatureHumidityPressure
High75 °F (Jun 27, 2:00 PM)100% (Jun 22, 12:00 AM)30.51 "Hg (Jun 22, 12:00 AM)
Low28 °F (Jun 19, 5:00 AM)32% (Jun 19, 2:00 PM)29.77 "Hg (Jun 30, 5:00 AM)
Average53 °F76%30.15 "Hg
* Reported Jun 19 2:00 AM — Jul 4 2:00 AM, Canelones, Weather by CustomWeather, © 2015

Note: Actual official high and low records may vary slightly from our data, if they occured in-between our weather recording intervals... More about our weather records

Advertising

Canelones weather history for previous 24 hours

 ConditionsComfort  
Time TempWeatherWind HumidityBarometerVisibility
2:00 AM
Sat, Jul 4
48 °FMostly cloudy.12 mph76%30.12 "HgN/A
1:00 AM48 °FPartly cloudy.21 mph82%30.09 "HgN/A
12:00 AM48 °FLight rain. Mostly cloudy.16 mph82%30.09 "HgN/A
11:00 PM
Fri, Jul 3
48 °FPartly cloudy.18 mph82%30.07 "HgN/A
10:00 PM50 °FPartly cloudy.17 mph76%30.04 "HgN/A
9:00 PM50 °FPassing clouds.14 mph82%30.04 "HgN/A
8:00 PM50 °FPartly cloudy.15 mph82%30.01 "HgN/A
7:00 PM50 °FPartly cloudy.13 mph82%29.98 "HgN/A
6:00 PM48 °FRain. Fog.17 mph94%29.95 "Hg2 mi
5:00 PM50 °FMostly cloudy.13 mph88%29.95 "HgN/A
4:00 PM50 °FOvercast.7 mph94%29.92 "HgN/A
3:00 PM50 °FLight rain. Overcast.14 mph94%29.92 "Hg5 mi
2:00 PM52 °FLight rain. Mostly cloudy.17 mph88%29.92 "Hg2 mi
1:00 PM54 °FDrizzle. Mostly cloudy.15 mph82%29.92 "Hg6 mi
12:00 PM55 °FMostly cloudy.14 mph82%29.92 "HgN/A
11:00 AM55 °FPassing clouds.10 mph77%29.92 "HgN/A
10:00 AM52 °FFog.5 mph94%29.89 "Hg2 mi
9:00 AM46 °FFog.3 mph100%29.89 "Hg1 mi
8:00 AM45 °FFog.No wind100%29.89 "Hg1 mi
7:00 AM45 °FFog.No wind93%29.89 "Hg1 mi
6:00 AM50 °FFog.No wind82%29.86 "Hg1 mi
5:00 AM46 °FFog.5 mph82%29.86 "Hg2 mi
4:00 AM46 °FPassing clouds.No wind82%29.89 "Hg4 mi
3:00 AM48 °FClear.No wind82%29.92 "Hg5 mi
2:00 AM48 °FClear.No wind76%29.95 "Hg10 mi
Weather by CustomWeather, © 2015

See weather overviewHow to use our weather pages